Current Weather Conditions: station ENQR

sailwx.info

See reports from other nearby stations

no recent reports received from weather station ID ENQR

Tides Pressure Air temp Water temp Dewpoint Dewpoint depression Visibility Wind speed Wind direction Waves Ship positions
date/time (UTC)wind fromknots sea level pressurealtimeterstation pressurevisibilityair tempwater tempwave heightnotes
2017-Jan-22 17:20 240 18 5.4 8.0
2017-Jan-22 16:50 240 18 5.4 8.0
2017-Jan-22 16:20 240 18 5.4 8.0
2017-Jan-22 15:50 220 15 5.4 7.0 Light rain showers.
2017-Jan-22 15:20 230 17 5.4 7.0 Light rain.
2017-Jan-22 14:50 230 13 5.4 7.0 Light rain.
2017-Jan-22 14:20 240 18 3.2 7.0 Light rain.
2017-Jan-22 13:50 230 17 5.4 8.0
2017-Jan-22 13:20 240 19 5.4 8.0
2017-Jan-22 12:50 220 20 5.4 7.0 Light rain showers.
2017-Jan-22 12:20 230 20 5.4 8.0 Light rain showers.
2017-Jan-22 11:50 230 22 5.4 8.0
2017-Jan-22 11:20 220 20 5.4 8.0
2017-Jan-22 10:50 210 22 5.4 8.0
2017-Jan-22 10:20 210 22 5.4 8.0
2017-Jan-22 09:50 210 21 5.4 8.0
2017-Jan-22 09:20 230 21 5.4 8.0
2017-Jan-22 08:50 230 19 5.4 8.0
2017-Jan-22 08:20 240 20 5.4 7.0 Light rain showers.
2017-Jan-22 07:50 230 20 4.3 7.0 Light rain showers.
2017-Jan-22 07:20 230 20 3.8 8.0
2017-Jan-22 06:50 220 21 5.4 8.0
2017-Jan-22 06:20 230 20 5.4 8.0
2017-Jan-22 05:50 220 20 5.4 8.0
2017-Jan-22 05:20 220 21 5.4 8.0
2017-Jan-22 04:50 220 20 5.4 8.0
2017-Jan-22 04:20 220 20 5.4 8.0
2017-Jan-22 03:50 220 14 5.4 8.0
2017-Jan-22 03:20 220 18 5.4 7.0
2017-Jan-22 02:50 230 20 5.4 7.0
2017-Jan-22 02:20 220 21 5.4 7.0
2017-Jan-22 01:50 210 20 5.4 7.0
2017-Jan-22 01:20 230 19 5.4 7.0
2017-Jan-22 00:50 220 20 5.4 7.0
2017-Jan-22 00:20 220 18 5.4 7.0
2017-Jan-21 23:50 220 19 5.4 7.0
2017-Jan-21 23:20 230 17 5.4 7.0
2017-Jan-21 22:50 220 18 5.4 7.0
2017-Jan-21 22:20 220 17 5.4 7.0
2017-Jan-21 21:50 220 20 5.4 7.0
2017-Jan-21 21:20 240 17 5.4 7.0
2017-Jan-21 20:50 230 20 5.4 7.0
2017-Jan-21 20:20 230 20 5.4 7.0
2017-Jan-21 19:50 220 20 5.4 7.0
2017-Jan-21 19:20 5.4 7.0
2017-Jan-21 18:50 210 22 5.4 7.0
2017-Jan-21 18:20 220 24 5.4 7.0
2017-Jan-21 17:50 210 24 5.4 7.0
2017-Jan-21 17:20 200 22 5.4 7.0
2017-Jan-21 16:50 200 25 5.4 7.0
2017-Jan-21 16:20 190 26 3.8 7.0
2017-Jan-21 15:50 200 25 4.9 7.0
2017-Jan-21 15:20 180 27 4.9 7.0
2017-Jan-21 14:50 190 26 5.4 7.0
2017-Jan-21 14:20 200 27 5.4 7.0
2017-Jan-21 13:50 200 27 5.4 7.0
2017-Jan-21 13:20 180 28 5.4 7.0
2017-Jan-21 12:50 190 27 5.4 7.0
2017-Jan-21 12:20 200 27 5.4 8.0
2017-Jan-21 11:50 190 26 5.4 8.0
2017-Jan-21 11:20 180 27 5.4 8.0
2017-Jan-21 10:50 190 27 5.4 8.0
2017-Jan-21 10:20 190 25 5.4 8.0
2017-Jan-21 09:50 190 22 5.4 8.0
2017-Jan-21 09:20 190 22 5.4 8.0
2017-Jan-21 08:50 190 19 5.4 8.0
2017-Jan-21 08:20 200 18 5.4 8.0
2017-Jan-21 07:50 210 17 5.4 8.0
2017-Jan-21 07:20 210 15 5.4 8.0
2017-Jan-21 06:50 210 15 5.4 8.0
2017-Jan-21 06:20 220 18 5.4 8.0
2017-Jan-21 05:50 230 19 5.4 8.0
2017-Jan-21 05:20 240 17 5.4 8.0
2017-Jan-21 04:50 240 18 5.4 8.0
2017-Jan-21 04:20 240 18 5.4 8.0
2017-Jan-21 03:50 240 17 5.4 8.0
2017-Jan-21 03:20 240 17 5.4 8.0
2017-Jan-21 02:50 240 19 5.4 8.0
2017-Jan-21 02:20 240 15 3.8 8.0
2017-Jan-21 01:50 240 18 4.9 9.0
2017-Jan-21 01:20 230 17 5.4 9.0
2017-Jan-21 00:50 240 17 5.4 9.0
2017-Jan-21 00:20 240 17 5.4 9.0
2017-Jan-20 23:50 250 15 5.4 9.0
2017-Jan-20 23:20 250 17 5.4 9.0
2017-Jan-20 22:50 250 19 5.4 9.0
2017-Jan-20 22:20 250 18 5.4 9.0
2017-Jan-20 21:50 250 17 5.4 9.0
2017-Jan-20 21:20 260 18 5.4 9.0
2017-Jan-20 20:50 270 18 5.4 9.0
2017-Jan-20 20:20 260 19 5.4 9.0
2017-Jan-20 19:50 260 17 5.4 9.0
2017-Jan-20 19:20 270 20 5.4 9.0
2017-Jan-20 18:50 260 22 5.4 9.0
2017-Jan-20 18:20 260 20 5.4 9.0